Flag for U.S.A. Weather past 2 weeks in Lawrence, Kansas, U.S.A.

Now
73 °F

Sunny.


Feels Like: 75 °F
Forecast: 59 / 84 °F
Wind: 3 mph from East

Location: Lawrence Municipal Airport

Current Time: Jul 4, 2015 at 10:48:12 AM

Latest Report: Jul 4, 2015 at 9:52 AM


Visibility: 10 mi

Pressure: 30.02 "Hg

Humidity: 71%

Dew point: 63 °F

Location of LawrenceLocation

Historic Weather in Lawrence — Graph

°F

Lawrence temperature yesterday

Maximum temperature yesterday: 80 °F (at 2:52 PM)
Minimum temperature yesterday: 63 °F (at 10:52 PM)
Average temperature yesterday: 71 °F

Past Weeks' High & Low Weather Summary

 TemperatureHumidityPressure
High96 °F (Jun 20, 3:52 PM)97% (Jul 3, 2:59 AM)30.15 "Hg (Jul 3, 2:59 AM)
Low58 °F (Jul 4, 4:52 AM)36% (Jun 28, 2:52 PM)29.73 "Hg (Jun 20, 8:52 PM)
Average77 °F72%29.91 "Hg
* Reported Jun 19 8:52 AM — Jul 4 8:52 AM, Lawrence, Weather by CustomWeather, © 2015

Note: Actual official high and low records may vary slightly from our data, if they occured in-between our weather recording intervals... More about our weather records

Advertising

Lawrence weather history for previous 24 hours

 ConditionsComfort  
Time TempWeatherWind HumidityBarometerVisibility
8:52 AM
Sat, Jul 4
69 °FSunny.No wind81%30.01 "Hg7 mi
7:52 AM64 °FFog.No wind90%29.99 "Hg5 mi
6:52 AM59 °FFog.3 mph96%29.98 "Hg2 mi
5:52 AM58 °FFog.3 mph97%29.98 "Hg5 mi
4:52 AM58 °FFog.5 mph97%29.97 "Hg4 mi
3:52 AM60 °FFog.No wind93%29.96 "Hg6 mi
2:52 AM60 °FFog.No wind93%29.97 "Hg5 mi
1:52 AM61 °FFog.No wind93%29.97 "Hg6 mi
12:52 AM62 °FClear.5 mph93%29.98 "Hg9 mi
11:52 PM
Fri, Jul 3
63 °FClear.No wind90%29.98 "Hg10 mi
10:52 PM63 °FClear.No wind90%29.96 "Hg10 mi
9:52 PM65 °FClear.No wind87%29.94 "Hg10 mi
8:52 PM69 °FSunny.5 mph79%29.92 "Hg10 mi
7:52 PM75 °FSunny.3 mph64%29.91 "Hg10 mi
6:52 PM78 °FSunny.6 mph48%29.92 "Hg10 mi
5:52 PM80 °FSunny.7 mph49%29.92 "Hg10 mi
4:52 PM80 °FSunny.6 mph49%29.92 "Hg10 mi
3:52 PM80 °FSunny.5 mph51%29.93 "Hg10 mi
2:52 PM80 °FSunny.9 mph47%29.93 "Hg10 mi
1:52 PM79 °FScattered clouds.9 mph56%29.94 "Hg10 mi
12:52 PM76 °FOvercast.9 mph67%29.96 "Hg10 mi
11:52 AM75 °FPartly sunny.8 mph69%29.95 "Hg10 mi
11:04 AM74 °FPartly sunny.7 mph71%29.97 "Hg10 mi
10:52 AM74 °FBroken clouds.6 mph74%29.95 "Hg10 mi
Weather by CustomWeather, © 2015

See weather overviewHow to use our weather pages